Location: Unspecified
(32.6095°N, 0.0000°E)
Time: 13:40:18
(UTC+00:00)

OTV 5 (USA 277) - Visible Passes

Search period start: 23 October 2019 00:00
Search period end: 02 November 2019 00:00
Orbit: 310 x 324 km, 54.5° (Epoch: 17 October)

Date Brightness Start Highest point End Pass type
(mag) Time Alt. Az. Time Alt. Az. Time Alt. Az.
23 Oct ? 04:18:45 18° ESE 04:18:45 18° ESE 04:19:35 10° SE visible
24 Oct ? 04:33:52 11° SSE 04:33:52 11° SSE 04:33:57 10° SSE visible
26 Oct ? 18:06:19 10° S 18:08:36 24° SE 18:09:16 22° ESE visible
27 Oct ? 18:20:20 10° SW 18:23:02 80° NW 18:24:02 34° NE visible
28 Oct ? 18:35:26 10° W 18:37:39 22° NW 18:38:40 18° N visible
31 Oct ? 17:45:34 10° WNW 17:47:07 14° NW 17:48:40 10° N visible
